CAPE
3 0 0 3 3 1 0 1 0 0 0 0 0 0 0 0 0 0 0 17 66 137 127 103 87 192 175 0 0 0 0 0 0 0 0 0 0 0 0 0 0 0 0 0
0 1 3 5 5 5 2 0 0 0 0 0 0 0 0 0 0 0 0 0 32 40 93 189 147 252 236 46 1 0 0 0 0 0 0 0 0 3 47 32 32 40 49 46
0 0 4 3 2 1 0 0 0 0 1 1 0 0 0 0 0 0 0 0 0 0 3 66 145 110 135 109 92 124 71 47 0 0 0 0 21 76 69 65 81 89 101 104
0 0 0 0 1 1 0 0 0 0 0 0 0 0 1 0 0 0 0 0 0 0 0 0 0 1 0 0 0 0 0 1 0 25 85 140 199 185 105 63 50 62 57 100
0 0 0 0 0 0 0 0 0 0 0 0 0 0 0 0 0 0 0 0 0 0 0 0 0 0 0 0 0 0 0 0 0 0 53 213 264 177 84 19 7 0 0 0
0 0 0 0 0 0 0 0 0 0 0 0 0 0 0 0 0 0 0 0 0 0 0 0 0 0 0 0 0 0 0 0 0 0 0 1 69 26 1 0 0 0 0 0
0 0 0 0 0 0 0 0 0 0 0 0 0 0 0 0 0 0 0 0 0 0 0 0 0 0 0 0 0 0 0 0 0 0 0 0 0 0 0 0 0 0 0 0
0 0 0 0 0 0 0 0 0 0 0 0 0 0 0 0 0 0 0 0 0 0 0 0 0 0 0 0 0 0 0 0 0 0 0 0 0 0 0 0 0 0 0 0
0 0 0 0 0 0 0 0 0 0 0 0 0 0 0 0 0 0 0 0 0 0 0 0 0 0 0 0 0 0 0 0 0 0 0 0 0 0 0 0 0 0 0 0
0 0 0 0 0 0 0 0 0 0 0 0 0 0 0 0 0 0 0 0 0 0 0 0 0 0 0 0 0 0 0 0 0 0 0 0 0 0 0 0 0 0 0 0
0 0 0 0 0 0 0 0 0 0 0 0 0 0 0 0 0 0 0 0 0 0 0 0 0 0 0 0 0 0 0 0 0 0 0 0 0 0 0 0 0 0 0 0
0 0 0 0 0 0 0 0 0 0 0 0 0 0 0 0 0 0 0 0 0 0 0 0 0 0 0 0 0 0 0 0 0 0 0 0 0 0 0 0 0 0 0 0
0 0 0 0 0 0 0 0 0 0 0 0 0 0 0 0 0 0 0 0 0 0 0 0 0 0 0 0 0 0 0 0 0 0 0 0 0 0 0 0 0 0 0 0
0 0 0 0 0 0 0 0 0 0 0 0 0 0 0 0 0 0 0 0 0 0 0 0 0 0 0 0 0 0 0 0 0 0 0 0 0 0 0 0 0 0 0 0
0 0 0 0 0 0 0 0 0 0 0 0 0 0 0 0 0 0 0 0 0 0 0 0 0 0 0 0 0 0 0 0 0 0 0 0 0 0 0 0 0 0 0 0
0 0 0 0 0 0 0 0 0 0 0 0 0 0 0 0 0 0 0 0 0 0 0 0 0 0 0 0 0 0 0 0 0 0 0 0 0 0 0 0 0 0 0 0
0 0 0 0 0 0 0 0 0 0 0 0 0 0 0 0 0 0 0 0 0 0 0 0 0 0 0 0 0 0 0 0 0 0 0 0 0 0 0 0 0 0 0 0
0 0 0 0 0 0 0 0 0 0 0 0 0 0 0 0 0 0 0 0 0 0 0 0 0 0 0 0 0 0 0 0 0 0 0 0 0 0 0 0 0 0 0 0
0 0 0 0 0 0 0 0 0 0 0 0 0 0 0 0 0 0 0 0 0 0 0 0 0 0 0 0 0 0 0 0 0 0 0 0 0 0 0 0 0 0 0 0
0 0 0 0 0 0 0 0 0 0 0 0 0 0 0 0 0 0 0 0 0 0 0 0 0 0 0 0 0 0 0 0 0 0 0 0 0 0 0 0 0 0 0 0
0 1 0 0 0 0 0 0 0 0 0 0 0 0 0 0 0 0 0 0 0 0 0 0 0 0 0 0 0 0 0 0 0 0 0 0 0 0 0 0 0 0 0 0
0 0 0 0 0 0 0 0 0 0 0 0 0 0 0 0 0 0 0 0 0 0 0 0 0 0 0 0 0 0 0 0 0 0 0 0 0 0 0 0 0 0 0 0
0 0 0 0 0 0 0 0 0 0 0 0 0 0 0 0 0 0 0 0 0 0 0 0 0 0 0 0 0 0 0 0 0 0 0 0 0 0 0 0 0 0 0 0
0 0 0 0 0 0 0 0 0 0 0 0 0 0 0 0 0 0 0 0 0 0 0 0 0 0 0 0 0 0 0 0 0 0 0 0 0 0 0 0 0 0 0 0
0 0 0 0 0 0 0 0 0 0 0 0 0 0 0 0 0 0 0 0 0 0 0 0 0 0 0 0 0 0 0 0 0 0 0 0 0 0 0 0 0 0 0 0
0 0 0 0 0 0 0 0 0 0 0 0 0 0 0 0 0 0 0 0 0 0 0 0 0 0 0 0 0 0 0 0 0 0 0 0 0 0 0 0 0 0 0 0
CIN
-2 0 0 0 0 0 0 0 0 0 0 0 0 0 0 0 0 0 0 -121 -121 -135 -149 -205 -209 -138 -127 0 0 0 0 0 0 0 0 0 0 0 0 0 0 0 0 0
0 0 0 -1 0 0 0 0 0 0 0 0 0 0 0 0 0 0 0 0 -101 -135 -143 -150 -167 -107 -92 -153 -12 0 0 0 0 0 0 0 0 -45 -103 -104 -95 -78 -68 -69
0 0 0 0 0 0 0 0 0 0 0 0 -1 0 0 0 0 0 0 0 0 0 -73 -120 -108 -122 -121 -119 -117 -107 -142 -162 0 0 0 0 -153 -109 -94 -86 -61 -50 -41 -36
0 0 0 0 0 0 0 0 0 0 0 0 0 0 0 0 0 0 0 0 0 0 0 0 0 -34 -31 0 0 0 -14 -47 0 -179 -112 -68 -50 -48 -59 -58 -73 -60 -57 -34
0 0 0 0 0 0 0 0 0 0 0 0 0 0 0 0 0 0 0 0 0 0 0 0 0 0 0 0 0 0 0 0 0 0 -125 -73 -42 -32 -65 -117 -131 0 0 0
0 0 0 0 0 0 0 0 0 0 0 0 0 0 0 0 0 0 0 0 0 0 0 0 0 0 0 0 0 0 0 0 0 0 0 -78 -98 -140 -66 0 0 0 0 0
0 0 0 0 0 0 0 0 0 0 0 0 0 0 0 0 0 0 0 0 0 0 0 0 0 0 0 0 0 0 0 0 0 0 0 0 0 0 0 0 0 0 0 0
0 0 0 0 0 0 0 0 0 0 0 0 0 0 0 0 0 0 0 0 0 0 0 0 0 0 0 0 0 0 0 0 0 0 0 0 0 0 0 0 0 0 0 0
0 0 0 0 0 0 0 0 0 0 0 0 0 0 0 0 0 0 0 0 0 0 0 0 0 0 0 0 0 0 0 0 0 0 0 0 0 0 0 0 0 0 0 0
0 0 0 0 0 0 0 0 0 0 0 0 0 0 0 0 0 0 0 0 0 0 0 0 0 0 0 0 0 0 0 0 0 0 0 0 0 0 0 0 0 0 0 0
0 0 -1 0 0 0 0 0 0 0 0 0 0 0 0 0 0 0 0 0 0 0 0 0 0 0 0 0 0 0 0 0 0 0 0 0 0 0 0 0 0 0 0 0
0 0 0 0 0 0 0 0 0 0 0 0 0 0 0 0 0 0 0 0 0 0 0 0 0 0 0 0 0 0 0 0 0 0 0 0 0 0 0 0 0 0 0 0
0 0 0 0 0 0 0 0 0 0 0 0 0 0 0 0 0 0 0 0 0 0 0 0 0 0 0 0 0 0 0 0 0 0 0 0 0 0 0 0 0 0 0 0
0 0 0 0 0 0 0 0 0 0 0 0 0 0 0 0 0 0 0 0 0 0 0 0 0 0 0 0 0 0 0 0 0 0 0 0 0 0 0 0 0 0 0 0
0 0 0 0 0 0 0 0 0 0 0 0 0 0 0 0 0 0 0 0 0 0 0 0 0 0 0 0 0 0 0 0 0 0 0 0 0 0 0 0 0 0 0 0
0 0 0 0 0 0 0 0 0 0 0 0 0 0 0 0 0 0 0 0 0 0 0 0 0 0 0 0 0 0 0 0 0 0 0 0 0 0 0 0 0 0 0 0
0 0 0 0 0 0 0 0 0 0 0 0 0 0 0 0 0 0 0 0 0 0 0 0 0 0 0 0 0 0 0 0 0 0 0 0 0 0 0 0 0 0 0 0
0 0 0 0 0 0 0 0 0 0 0 0 0 0 0 0 0 0 0 0 0 0 0 0 0 0 0 0 0 0 0 0 0 0 0 0 0 0 0 0 0 0 0 0
0 0 0 0 0 0 0 0 0 0 0 0 0 0 0 0 0 0 0 0 0 0 0 0 0 0 0 0 0 0 0 0 0 0 0 0 0 0 0 0 0 0 0 0
0 0 0 0 0 0 0 0 0 0 0 0 0 0 0 0 0 0 0 0 0 0 0 0 0 0 0 0 0 0 0 0 0 0 0 0 0 0 0 0 0 0 0 0
0 -1 0 0 0 0 0 0 0 0 0 0 0 0 0 0 0 0 0 0 0 0 0 0 0 0 0 0 0 0 0 0 0 0 0 0 0 0 0 0 0 0 0 0
0 0 0 0 0 0 0 0 0 0 0 0 0 0 0 0 0 0 0 0 0 0 0 0 0 0 0 0 0 0 0 0 0 0 0 0 0 0 0 0 0 0 0 0
0 0 0 0 0 0 0 0 0 0 0 0 0 0 0 0 0 0 0 0 0 0 0 0 0 0 0 0 0 0 0 0 0 0 0 0 0 0 0 0 0 0 0 0
0 0 0 0 0 0 0 0 0 0 0 0 0 0 0 0 0 0 0 0 0 0 0 0 0 0 0 0 0 0 0 0 0 0 0 0 0 0 0 0 0 0 0 0
0 0 0 0 0 0 0 0 0 0 0 0 0 0 0 0 0 0 0 0 0 0 0 0 0 0 0 0 0 0 0 0 0 0 0 0 0 0 0 0 0 0 0 0
0 0 0 0 0 0 0 0 0 0 0 0 0 0 0 0 0 0 0 0 0 0 0 0 0 0 0 0 0 0 0 0 0 0 0 0 0 0 0 0 0 0 0 0
Wind_Speed
4 8 6 23 24 13 19 22 31 31 33 39 43 31 25 22 21 22 22 22 21 19 18 16 17 14 12 10 10 11 11 11 10 11 12 14 15 16 18 20 20 20 20 19
13 9 11 9 19 16 6 13 26 28 29 33 34 37 33 28 21 20 23 25 24 21 16 15 15 16 16 13 12 11 11 11 11 11 12 14 15 19 20 19 21 20 20 21
20 11 11 10 11 13 14 11 19 24 27 28 31 36 31 27 17 14 15 17 20 22 20 18 16 16 17 16 17 15 14 11 11 11 13 17 18 21 21 22 23 23 23 22
16 14 13 13 18 15 13 14 13 14 22 30 24 36 29 25 19 20 16 18 18 18 18 18 18 18 17 17 16 17 16 16 16 15 14 15 18 20 21 21 22 23 24 24
12 14 15 15 15 17 16 11 9 10 14 22 25 28 26 23 21 21 20 20 21 20 19 19 18 18 17 19 17 18 18 16 17 17 20 18 19 21 22 22 23 24 24 24
9 14 15 16 13 12 13 14 11 12 16 26 24 24 23 27 27 26 23 21 22 23 22 21 20 20 20 21 21 21 23 22 21 23 22 22 22 21 23 24 25 25 25 25
15 10 15 15 17 17 16 17 22 22 24 26 21 20 22 20 21 23 23 23 21 19 21 23 24 24 25 25 25 25 24 25 24 23 24 24 23 24 25 24 25 25 25 25
15 14 16 17 18 20 21 19 24 27 25 23 21 24 23 16 17 17 17 19 19 20 21 22 21 22 22 23 24 25 25 25 24 23 23 22 21 22 22 22 23 23 23 22
13 13 10 16 17 17 19 20 17 16 15 20 19 16 14 18 16 19 21 21 23 24 22 21 21 21 22 22 22 21 21 21 21 21 21 21 21 21 20 20 19 19 19 19
13 12 12 13 18 17 19 17 22 20 26 29 22 20 16 12 11 12 14 16 18 21 23 24 24 22 22 21 21 21 21 20 20 19 19 18 18 18 17 17 18 18 18 19
13 12 12 13 8 19 20 21 19 18 20 25 25 24 9 9 11 13 16 17 19 19 20 21 22 23 24 24 23 22 21 20 19 18 17 16 16 15 16 16 17 17 17 18
13 12 10 11 9 16 18 19 19 22 23 20 21 22 6 10 14 15 17 19 19 20 21 22 22 21 22 22 22 22 21 20 19 18 16 15 15 15 15 15 15 15 16 17
10 9 8 10 10 9 13 17 17 16 19 23 24 22 9 14 17 18 19 21 21 21 22 23 23 24 23 23 22 22 21 19 17 16 18 17 16 15 14 14 14 15 16 17
13 12 8 6 8 10 7 11 15 17 21 21 22 20 15 22 23 20 20 21 22 23 23 24 25 25 25 24 23 21 19 17 15 14 14 14 14 15 15 15 15 16 16 17
13 12 13 14 15 14 13 12 11 9 17 21 23 24 23 25 22 21 20 19 20 22 24 25 26 27 27 26 26 25 23 21 19 18 17 17 16 15 15 15 15 15 16 16
16 15 14 14 17 18 17 15 14 15 15 18 23 27 24 21 21 22 22 22 23 24 25 27 28 29 29 29 29 28 26 25 21 20 20 19 17 16 16 16 16 16 15 16
17 14 15 16 19 20 18 14 12 13 12 12 14 15 20 22 25 24 24 24 25 26 28 29 30 31 32 32 31 31 31 29 24 21 20 18 16 16 16 16 17 19 19 17
16 16 17 18 19 15 17 19 20 14 14 11 14 14 13 21 21 19 19 23 26 29 31 32 32 33 34 34 33 33 32 31 28 26 25 23 21 21 19 18 18 19 19 18
16 15 18 19 17 23 20 17 16 16 21 18 20 22 21 18 16 19 20 24 27 30 32 32 32 34 35 35 35 35 34 32 30 29 28 27 25 24 23 22 20 19 18 19
15 14 16 16 16 17 16 14 14 16 23 18 17 16 14 17 22 23 25 27 31 31 31 32 32 32 32 33 33 33 34 33 32 29 29 27 25 24 23 22 21 22 20 21
13 15 16 15 16 19 13 12 18 20 19 17 16 16 17 21 21 27 29 30 32 33 32 31 31 32 31 31 32 33 33 32 32 29 26 25 24 24 22 20 19 18 20 20
13 12 14 13 13 16 9 13 14 15 17 19 18 19 21 23 27 31 32 32 33 34 33 32 32 31 30 30 31 32 32 30 27 24 22 21 20 20 20 19 18 16 17 19
14 12 13 8 11 13 11 14 11 17 21 23 24 25 28 30 33 31 31 31 30 30 28 30 31 30 28 27 28 29 28 25 23 21 19 17 16 15 14 16 18 19 18 18
16 7 13 13 16 6 3 8 5 10 14 18 16 18 21 23 23 24 24 25 27 27 29 29 29 27 26 24 25 24 24 21 20 19 17 15 15 16 15 16 18 19 16 20
14 7 11 18 19 25 12 1 7 10 14 16 18 20 22 22 22 19 21 22 26 25 27 26 25 21 21 20 22 20 18 18 17 16 15 14 17 17 16 17 17 21 21 16
7 10 10 16 10 14 20 18 17 14 13 14 19 24 23 22 20 19 18 17 20 22 24 23 21 20 19 18 18 17 15 15 14 14 13 12 15 18 20 21 20 18 19 19
Wind_Direction
220 230 234 201 215 239 236 225 218 231 234 232 231 236 247 265 254 249 254 254 254 257 261 260 248 246 263 235 229 238 246 254 258 267 271 278 281 287 291 293 296 298 301 304
298 258 233 236 213 217 242 224 225 235 237 237 237 236 241 264 268 259 261 258 255 259 259 261 258 248 258 251 247 247 248 253 257 265 273 281 285 288 292 295 296 300 302 303
3 274 301 278 236 234 239 233 227 232 239 245 241 240 241 264 275 267 266 269 264 264 262 263 262 258 261 263 264 264 265 260 261 265 276 283 287 290 294 295 296 298 300 302
338 287 281 269 240 241 234 243 249 242 242 230 245 235 238 257 251 260 270 270 271 271 269 274 270 270 271 272 273 275 274 274 277 278 277 283 286 291 295 299 301 303 304 304
36 333 274 266 256 257 236 260 266 258 251 237 249 245 244 256 252 258 265 274 275 275 275 279 278 278 280 278 281 283 285 289 291 293 284 285 289 293 296 299 302 305 306 308
13 324 296 272 273 270 263 261 281 270 254 243 251 249 254 251 252 263 268 277 278 279 278 280 283 286 285 288 286 284 284 293 298 292 293 293 294 296 295 298 299 302 306 307
96 323 301 281 260 263 261 255 248 251 252 248 253 262 264 268 265 270 270 275 285 296 287 283 284 285 286 286 287 290 292 291 294 297 293 295 296 296 296 298 299 301 304 306
78 95 294 284 274 269 254 266 254 248 250 253 259 260 264 277 284 289 290 287 290 294 291 289 292 292 296 297 294 292 293 293 294 297 299 301 302 301 302 303 304 306 307 311
80 99 359 292 289 282 271 268 278 266 272 260 261 275 293 284 288 287 290 292 287 286 292 296 299 300 300 301 303 303 302 301 300 300 302 302 302 303 305 308 312 311 315 317
65 93 89 335 290 283 275 279 265 273 257 257 264 270 269 280 299 312 314 308 300 292 292 292 296 301 306 306 305 306 305 304 306 307 307 308 307 308 309 311 312 315 317 318
25 65 87 93 8 280 277 271 279 278 276 264 258 266 288 301 321 324 320 319 317 317 315 313 310 305 303 304 306 307 309 308 308 309 312 314 314 314 315 315 315 319 323 322
353 20 79 98 56 303 288 281 281 272 271 279 270 262 293 326 320 328 329 329 327 326 325 323 326 325 320 317 314 311 309 308 308 310 313 315 315 315 316 319 323 326 328 330
350 16 49 44 39 15 324 295 288 290 284 272 271 264 271 314 317 318 319 324 326 327 328 328 328 327 326 322 318 315 314 313 313 312 308 310 312 313 317 321 325 327 329 328
334 333 360 44 15 360 21 336 302 291 280 277 276 279 269 296 306 313 317 325 326 329 332 333 330 329 332 329 327 326 323 321 319 318 315 313 310 310 312 314 319 322 325 327
331 331 328 327 326 329 329 328 326 326 294 281 281 280 278 297 305 312 321 334 335 335 336 336 335 334 331 327 326 321 316 312 310 308 308 307 308 308 309 310 314 319 324 328
321 315 321 320 314 313 313 317 317 310 314 301 290 286 294 299 306 308 315 321 323 327 328 328 329 330 330 329 323 319 317 311 309 305 303 303 304 304 306 308 311 317 323 326
307 317 313 309 309 307 308 314 315 315 322 324 313 316 306 304 305 309 312 316 317 320 321 321 321 321 321 321 319 318 313 310 307 301 302 301 299 299 301 306 309 312 316 322
310 309 309 305 306 307 307 305 303 312 317 322 317 319 325 312 315 321 322 319 316 316 316 316 317 317 317 315 316 315 315 313 308 302 297 295 293 292 293 296 300 307 312 318
311 311 306 302 304 301 307 311 312 310 305 312 307 309 313 320 323 320 321 319 315 312 311 313 315 314 314 316 316 315 314 314 311 307 300 295 290 288 288 290 294 301 307 313
306 315 307 313 318 316 318 328 337 331 306 325 322 323 327 323 313 315 318 317 313 314 314 314 315 317 318 320 322 319 316 314 312 311 305 300 294 288 286 288 292 297 300 305
299 302 298 311 316 315 320 332 325 317 318 327 333 332 327 320 321 318 317 315 314 314 315 317 318 319 321 325 326 322 321 320 318 316 312 307 299 294 290 287 288 295 301 304
302 305 307 314 327 325 356 332 327 331 334 332 334 331 327 323 320 319 318 316 314 313 315 318 318 320 323 326 325 326 326 328 329 328 325 320 311 305 298 293 295 299 298 298
301 313 318 326 342 332 344 335 353 340 328 323 324 322 318 316 315 319 319 319 319 319 319 318 318 320 324 327 330 329 332 339 341 340 337 333 329 321 313 302 300 302 302 303
299 337 318 325 315 172 2 355 25 359 351 346 348 344 339 332 334 330 330 327 325 323 320 320 321 322 325 331 332 334 338 346 348 348 345 342 335 327 320 313 305 304 309 302
302 339 317 304 307 298 277 158 185 211 356 352 348 344 340 338 335 333 331 329 326 325 323 324 324 326 328 334 336 339 345 348 349 355 351 346 329 328 325 320 315 305 309 313
301 297 301 313 335 330 319 334 341 348 346 344 341 335 336 339 339 340 336 332 329 326 326 327 326 325 326 329 334 339 345 345 345 341 338 339 325 321 316 311 314 318 315 309